Fort Polk, LA

11:52 AM CDT on October 20, 2019 (GMT -0500)
Fort Polk

Weather History for KAQV - August, 2019

Change the Weather History Date:

Thursday, August 29, 2019

  Actual Average (KPOE) Record (KPOE)
Temperature  
Mean Temperature 82 °F -  
Max Temperature 96 °F 88 °F 98 °F (2008)
Min Temperature 70 °F 70 °F 67 °F (2015)
Cooling Degree Days 16    
Growing Degree Days 32 (Base 50)    
Moisture  
Dew Point 70 °F    
Average Humidity 70    
Maximum Humidity 97    
Minimum Humidity 44    
Precipitation  
Precipitation 0.00 in - - ()
Sea Level Pressure  
Sea Level Pressure 30.01 in    
Wind  
Wind Speed 1 mph (ENE)    
Max Wind Speed 7 mph    
Max Gust Speed -    
Visibility 9 miles    
Events      
Averages and records for this station are not official NWS values.
T = Trace of Precipitation, MM = Missing Value Source: NWS Daily Summary

Daily Weather History Graph

Daily Weather History Graph

Search for Another Location

Airport or City:

Astronomy

Aug. 29, 2019 Rise Set
Actual Time 6:47 AM CDT 7:40 PM CDT
Civil Twilight 6:22 AM CDT 8:05 PM CDT
Nautical Twilight 5:52 AM CDT 8:34 PM CDT
Astronomical Twilight 5:22 AM CDT 9:04 PM CDT
Moon 5:41 AM CDT (8/29) 7:32 PM CDT (8/29)
Length of Visible Light 13h 43m
Length of Day
12h 53m
Waning Crescent, 1% of the Moon is Illuminated
Aug 29
Waning Crescent
Aug 30
New
Sep 5
First Quarter
Sep 13
Full
Sep 21
Last Quarter

Hourly Weather History & Observations

Time (CDT) Temp. Heat Index Dew Point Humidity Pressure Visibility Wind Dir Wind Speed Gust Speed Precip Events Conditions
12:56 AM 73.9 °F - 71.1 °F 91% 30.00 in 10.0 mi Calm Calm - N/A   Clear
1:56 AM 73.0 °F - 71.1 °F 93% 29.99 in 9.0 mi Calm Calm - N/A   Clear
3:56 AM 72.0 °F - 70.0 °F 93% 30.01 in 7.0 mi Calm Calm - N/A   Clear
4:56 AM 71.1 °F - 69.1 °F 93% 30.02 in 5.0 mi Calm Calm - N/A   Clear
5:56 AM 71.1 °F - 69.1 °F 93% 30.02 in 6.0 mi Calm Calm - N/A   Clear
6:56 AM 70.0 °F - 69.1 °F 97% 30.04 in 4.0 mi Calm Calm - N/A   Clear
7:56 AM 73.9 °F - 71.1 °F 91% 30.05 in 10.0 mi Calm Calm - N/A   Clear
8:56 AM 80.1 °F 83.2 °F 70.0 °F 71% 30.06 in 10.0 mi ENE 3.5 mph - N/A   Clear
9:56 AM 84.9 °F 90.1 °F 71.1 °F 63% 30.06 in 10.0 mi Calm Calm - N/A   Clear
10:56 AM 86.0 °F 90.7 °F 70.0 °F 59% 30.06 in 10.0 mi Variable 3.5 mph - N/A   Clear
11:56 AM 90.0 °F 94.5 °F 69.1 °F 50% 30.05 in 10.0 mi North - - N/A   Clear
12:56 PM 91.0 °F 96.6 °F 70.0 °F 50% 30.03 in 10.0 mi Calm Calm - N/A   Partly Cloudy
1:56 PM 91.0 °F 96.6 °F 70.0 °F 50% 30.02 in 10.0 mi Variable 5.8 mph - N/A   Mostly Cloudy
2:56 PM 91.0 °F 95.6 °F 69.1 °F 48% 29.99 in 10.0 mi Variable 4.6 mph - N/A   Scattered Clouds
3:56 PM 93.9 °F 99.1 °F 69.1 °F 44% 29.97 in 10.0 mi ENE 6.9 mph - N/A   Partly Cloudy
4:56 PM 93.9 °F 99.1 °F 69.1 °F 44% 29.96 in 10.0 mi Variable 3.5 mph - N/A   Clear
5:56 PM 93.0 °F 97.9 °F 69.1 °F 45% 29.96 in 10.0 mi Variable 3.5 mph - N/A   Clear
6:56 PM 90.0 °F 94.5 °F 69.1 °F 50% 29.97 in 10.0 mi Calm Calm - N/A   Clear
7:56 PM 84.0 °F 89.0 °F 71.1 °F 65% 29.98 in 10.0 mi Calm Calm - N/A   Clear
8:56 PM 80.1 °F 83.8 °F 72.0 °F 76% 29.99 in 10.0 mi Calm Calm - N/A   Clear
9:56 PM 78.1 °F - 72.0 °F 81% 30.01 in 10.0 mi Calm Calm - N/A   Clear
10:56 PM 77.0 °F - 72.0 °F 84% 30.01 in 10.0 mi Calm Calm - N/A   Clear
11:56 PM 75.0 °F - 72.0 °F 90% 30.01 in 10.0 mi Calm Calm - N/A   Clear